PAKSAT-MM1 (59915 NORAD) Tracking and Keplerian Element Data

This shows tracking and keplerian element data for the satellite.

Feedback or suggestion? Click here.




ElementValue
Catalog59915
NamePAKSAT-MM1
Epoch Orbit18
Epoch Day159.19146781
Epoch Year2024
RAAN231.6983
Inclination0.039
Eccentricity2.99E-05
Argument of Perigee336.0863
Mean Anonmoly155.3903
Mean Motion1.00270078
Decay Rate1.54E-06
L11 59915U 24104A 24159.19146781 .00000154 00000+0 00000+0 0 9996
L22 59915 0.0390 231.6983 0000299 336.0863 155.3903 1.00270078 184



Live tracking and technical data element details for PAKSAT-MM1 (NORAD 59915). PAKSAT-MM1 can be tracked NOW for your location showing map with azimuth and elevation plus other details from your city location.







IsCatalogInMostPopularTable: catalog: 59915, numindb: 6
Update: records affected: 1



GetName: 59915 PAKSAT-MM1

Hit Count: updated at: Tue, 16 Jul 2024 02:32:14 GMT